Terug naar catalogus

STARLINK-32036

ActiefCommunicatieVLEO
NORAD 60141·PAYLOAD·🇺🇸 United States

Gelanceerd Jun 27, 2024 vanaf Cape Canaveral Space Force Station

Loading…

Volgende Passages (komende 24 uur)

TLE

VersSource: CelesTrak SupGP

Epoch: Sep 15, 2026, 03:06 UTC

1 60141C 24120G   26258.12965278  .00005680  00000+0  16783-3 0  2588
2 60141  53.1571 157.0767 0001249  89.3246 194.7838 15.34386051    14

Volg STARLINK-32036 in realtime met AllMySat

Download on the App Store